CAPE
0 0 0 0 0 0 0 0 0 0 0 0 0 0 0 0 0 0 0 0 0 0 0 0 0 1 1 2 2 3 1 2 4 3 3 1 0 0 0 0 1 0 0
0 0 0 0 0 0 0 0 0 0 0 0 0 0 0 0 0 0 0 0 0 0 0 0 0 0 0 0 1 1 1 1 1 3 1 0 0 0 0 0 2 0 0
0 0 0 0 0 0 0 0 0 0 0 0 0 0 0 0 0 0 0 0 0 0 0 0 0 0 0 0 0 0 0 0 0 0 0 0 0 0 0 0 0 0 0
0 0 0 0 0 0 0 0 0 0 0 0 0 0 0 0 0 0 0 0 0 0 0 0 0 0 0 0 0 0 0 0 0 0 0 0 0 0 0 0 0 0 0
0 0 0 0 0 0 0 0 0 0 0 0 0 0 0 0 0 0 0 0 0 0 0 0 0 0 0 0 0 0 0 0 0 0 0 0 0 0 0 0 0 0 0
0 0 0 0 0 0 0 0 0 0 0 0 0 0 0 0 0 0 0 0 0 0 0 0 0 0 0 0 0 0 0 0 0 0 0 0 0 0 0 0 0 0 0
0 0 0 0 0 0 0 0 0 0 0 0 0 0 0 0 0 0 0 0 0 0 0 0 0 0 0 0 0 0 0 0 0 0 0 0 0 0 0 0 0 0 0
0 0 2 0 0 0 0 0 0 0 0 1 0 0 0 0 1 0 0 0 0 0 0 0 0 0 0 0 0 0 0 0 0 0 0 0 0 0 0 0 0 0 0
1 1 2 0 0 0 0 0 0 0 0 0 0 0 0 0 0 0 0 0 1 1 3 1 0 0 0 0 0 0 0 0 0 0 0 0 0 0 0 0 0 0 0
2 2 0 0 0 0 0 0 0 0 0 0 0 0 0 0 0 0 0 0 0 0 0 0 0 0 0 0 0 0 0 0 0 0 0 0 0 0 0 0 0 0 0
2 2 1 0 0 0 0 0 0 0 0 0 0 0 0 0 0 0 0 0 0 0 0 0 0 0 0 0 0 0 0 0 0 0 0 0 0 0 0 0 0 0 0
1 2 0 0 0 0 0 0 0 0 0 0 0 0 0 2 1 1 0 0 0 0 0 0 0 0 0 0 0 0 0 0 0 0 0 0 0 0 0 0 0 0 0
2 2 0 0 0 0 0 0 0 0 0 0 0 0 0 1 5 1 1 0 0 0 0 0 0 0 0 0 0 0 0 0 0 0 0 0 0 0 0 0 0 0 0
2 1 0 0 0 0 0 0 0 0 0 0 0 0 0 0 0 1 1 0 0 0 0 0 0 0 0 0 0 0 0 0 0 0 0 0 0 0 0 0 0 0 0
1 0 0 0 0 0 0 0 0 0 0 0 0 0 0 0 0 0 0 0 0 0 0 0 0 0 0 0 0 0 0 0 0 0 0 0 0 0 0 0 0 0 0
1 0 0 0 0 0 0 0 0 0 0 0 0 0 0 0 0 0 0 0 0 0 0 0 0 0 0 0 0 0 0 0 0 0 0 0 0 0 0 0 0 0 0
0 0 0 0 0 0 0 0 1 0 0 0 0 0 0 1 2 2 0 0 0 0 0 0 0 0 0 0 0 0 0 0 0 0 0 0 0 0 0 0 0 0 0
0 0 0 0 0 0 0 0 0 0 0 0 1 2 8 8 2 0 0 0 0 0 0 0 0 0 0 0 0 0 0 0 0 0 0 0 0 0 0 0 0 0 0
0 0 0 1 1 1 1 0 0 0 0 0 0 2 0 1 0 0 0 0 0 0 0 0 0 0 0 0 0 0 0 0 0 0 0 0 0 0 0 0 0 0 0
1 0 0 0 1 1 1 0 0 0 0 0 0 1 0 0 0 0 0 0 0 0 0 0 0 0 0 0 0 0 0 0 0 0 0 0 0 0 0 0 0 0 0
1 1 0 0 0 0 0 0 0 0 0 0 0 0 0 0 0 0 0 0 0 0 0 0 0 0 0 0 0 0 0 0 0 0 0 0 0 0 0 0 0 0 0
0 0 0 0 0 0 0 0 0 0 0 0 0 0 0 0 0 0 0 0 0 0 0 0 0 0 0 0 0 0 0 0 0 0 0 0 0 0 0 0 0 0 0
0 1 0 0 0 0 0 0 0 0 0 0 0 0 0 0 0 0 0 0 0 0 0 0 0 0 0 0 0 0 0 0 0 0 0 0 0 0 0 0 0 0 0
0 0 0 0 0 0 0 0 0 0 0 0 0 0 0 0 0 0 0 0 0 0 0 0 0 0 0 0 0 0 0 0 0 0 0 0 0 0 0 0 0 0 0
0 0 0 0 0 0 0 0 1 0 0 0 0 0 0 0 0 0 0 0 0 0 0 0 0 0 0 0 0 0 0 0 0 0 0 0 0 0 0 0 0 0 0
0 0 0 0 0 0 0 0 0 0 0 0 0 0 0 0 0 0 0 0 0 0 0 0 0 0 0 0 0 0 0 0 0 0 0 0 0 0 0 0 0 0 0
CIN
-0 -0 -0 -0 -0 -0 -0 -0 -0 -0 -0 -0 -0 -0 -0 -0 -0 -0 -0 -0 -0 -0 -0 -0 -0 -0 -0 -0 -0 -0 -1 -0 -0 -0 -0 -0 -0 -0 -0 -0 -0 -0 -0
-0 -0 -0 -0 -0 -0 -0 -0 -0 -0 -0 -0 -0 -0 -0 -0 -0 -0 -0 -0 -0 -0 -0 -0 -0 -0 -0 -0 -0 -0 -0 -0 -0 -0 -0 -0 -0 -0 -0 -0 -0 -0 -0
-0 -0 -0 -0 -0 -0 -0 -0 -0 -0 -0 -0 -0 -0 -0 -0 -0 -0 -0 -0 -0 -0 -0 -0 -0 -0 -0 -0 -0 -0 -0 -0 -0 -0 -0 -0 -0 -0 -0 -0 -0 -0 -0
-0 -0 -0 -0 -0 -0 -0 -0 -0 -0 -0 -0 -0 -0 -0 -0 -0 -0 -0 -0 -0 -0 -0 -0 -0 -0 -0 -0 -0 -0 -0 -0 -0 -0 -0 -0 -0 -0 -0 -0 -0 -0 -0
-0 -0 -0 -0 -0 -0 -0 -0 -0 -0 -0 -0 -0 -0 -0 -0 -0 -0 -0 -0 -0 -0 -0 -0 -0 -0 -0 -0 -0 -0 -0 -0 -0 -0 -0 -0 -0 -0 -0 -0 -0 -0 -0
-0 -0 -0 -0 -0 -0 -0 -0 -0 -0 -0 -0 -0 -0 -0 -0 -0 -0 -0 -0 -0 -0 -0 -0 -0 -0 -0 -0 -0 -0 -0 -0 -0 -0 -0 -0 -0 -0 -0 -0 -0 -0 -0
-0 -0 -0 -0 -0 -0 -0 -0 -0 -0 -0 -0 -0 -0 -0 -0 -0 -0 -0 -0 -0 -0 -0 -0 -0 -0 -0 -0 -0 -0 -0 -0 -0 -0 -0 -0 -0 -0 -0 -0 -0 -0 -0
-0 -0 -0 -0 -0 -0 -0 -0 -0 -0 -0 -0 -0 -0 -0 -0 -0 -0 -0 -0 -0 -0 -0 -0 -0 -0 -0 -0 -0 -0 -0 -0 -0 -0 -0 -0 -0 -0 -0 -0 -0 -0 -0
-0 -0 -0 -0 -0 -0 -0 -0 -0 -0 -0 -0 -0 -0 -0 -0 -0 -0 -0 -0 -0 -0 -0 -0 -0 -0 -0 -0 -0 -0 -0 -0 -0 -0 -0 -0 -0 -0 -0 -0 -0 -0 -0
-0 -0 -0 -0 -0 -0 -0 -0 -0 -0 -0 -0 -0 -0 -0 -0 -0 -0 -0 -0 -0 -0 -0 -0 -0 -0 -0 -0 -0 -0 -0 -0 -0 -0 -0 -0 -0 -0 -0 -0 -0 -0 -0
-0 -0 -0 -0 -0 -0 -0 -0 -0 -0 -0 -0 -0 -0 -0 -0 -0 -0 -0 -0 -0 -0 -0 -0 -0 -0 -0 -0 -0 -0 -0 -0 -0 -0 -0 -0 -0 -0 -0 -0 -0 -0 -0
-0 -0 -0 -0 -0 -0 -0 -0 -0 -0 -0 -0 -0 -0 -0 -0 -0 -0 -0 -0 -0 -0 -0 -0 -0 -0 -0 -0 -0 -0 -0 -0 -0 -0 -0 -0 -0 -0 -0 -0 -0 -0 -0
-0 -0 -0 -0 -0 -0 -0 -0 -0 -0 -0 -0 -0 -0 -0 -0 -0 -0 -0 -0 -0 -0 -0 -0 -0 -0 -0 -0 -0 -0 -0 -0 -0 -0 -0 -0 -0 -0 -0 -0 -0 -0 -0
-0 -0 -0 -0 -0 -0 -0 -0 -0 -0 -0 -0 -0 -0 -0 -0 -0 -0 -0 -0 -0 -0 -0 -0 -0 -0 -0 -0 -0 -0 -0 -0 -0 -0 -0 -0 -0 -0 -0 -0 -0 -0 -0
-0 -0 -0 -0 -0 -0 -0 -0 -0 -0 -0 -0 -0 -0 -0 -0 -0 -0 -0 -0 -0 -0 -0 -0 -0 -0 -0 -0 -0 -0 -0 -0 -0 -0 -0 -0 -0 -0 -0 -0 -0 -0 -0
-0 -0 -0 -0 -0 -0 -0 -0 -0 -0 -0 -0 -0 -0 -0 -0 -0 -0 -0 -0 -0 -0 -0 -0 -0 -0 -0 -0 -0 -0 -0 -0 -0 -0 -0 -0 -0 -0 -0 -0 -0 -0 -0
-0 -0 -0 -0 -0 -0 -0 -0 -0 -0 -0 -0 -0 -0 -0 -0 -0 -1 -0 -0 -0 -0 -0 -0 -0 -0 -0 -0 -0 -0 -0 -0 -0 -0 -0 -0 -0 -0 -0 -0 -0 -0 -0
-0 -0 -0 -0 -0 -0 -0 -0 -0 -0 -0 -1 -0 -0 -0 -0 -0 -0 -0 -0 -0 -0 -0 -0 -0 -0 -0 -0 -0 -0 -0 -0 -0 -0 -0 -0 -0 -0 -0 -0 -0 -0 -0
-0 -0 -0 -0 -0 -0 -0 -0 -0 -0 -0 -0 -0 -0 -0 -0 -0 -0 -0 -0 -0 -0 -0 -0 -0 -0 -0 -0 -0 -0 -0 -0 -0 -0 -0 -0 -0 -0 -0 -0 -0 -0 -0
-0 -0 -0 -0 -0 -0 -0 -0 -0 -0 -0 -0 -1 -0 -0 -0 -0 -0 -0 -0 -0 -0 -0 -0 -0 -0 -0 -0 -0 -0 -0 -0 -0 -0 -0 -0 -0 -0 -0 -0 -0 -0 -0
-0 -0 -0 -0 -0 -0 -0 -0 -0 -0 -0 -0 -0 -0 -0 -0 -0 -0 -0 -0 -0 -0 -0 -0 -0 -0 -0 -0 -0 -0 -0 -0 -0 -0 -0 -0 -0 -0 -0 -0 -0 -0 -0
-0 -0 -0 -0 -0 -0 -0 -0 -0 -0 -0 -0 -0 -0 -0 -0 -0 -0 -0 -0 -0 -0 -0 -0 -0 -0 -0 -0 -0 -0 -0 -0 -0 -0 -0 -0 -0 -0 -0 -0 -0 -0 -0
-0 -0 -0 -0 -0 -0 -0 -0 -0 -0 -0 -0 -0 -0 -0 -0 -0 -0 -0 -0 -0 -0 -0 -0 -0 -0 -0 -0 -0 -0 -0 -0 -0 -0 -0 -0 -0 -0 -0 -0 -0 -0 -0
-0 -0 -0 -0 -0 -0 -0 -0 -0 -0 -0 -0 -0 -0 -0 -0 -0 -0 -0 -0 -0 -0 -0 -0 -0 -0 -0 -0 -0 -0 -0 -0 -0 -0 -0 -0 -0 -0 -0 -0 -0 -0 -0
-0 -0 -0 -0 -0 -0 -0 -0 -0 -0 -0 -0 -0 -0 -0 -0 -0 -0 -0 -0 -0 -0 -0 -0 -0 -0 -0 -0 -0 -0 -0 -0 -0 -0 -0 -0 -0 -0 -0 -0 -0 -0 -0
-0 -0 -0 -0 -0 -0 -0 -0 -0 -0 -0 -0 -0 -0 -0 -0 -0 -0 -0 -0 -0 -0 -0 -0 -0 -0 -0 -0 -0 -0 -0 -0 -0 -0 -0 -0 -0 -0 -0 -0 -0 -0 -0
Wind_Speed
9 8 7 8 9 11 13 14 16 16 17 18 19 21 23 24 25 24 25 25 26 27 26 27 26 26 26 26 27 27 27 28 28 27 26 27 26 27 27 25 23 22 23
10 8 7 7 8 9 11 13 14 16 16 17 18 20 22 24 24 24 25 25 26 26 26 26 26 25 26 26 27 27 26 25 25 26 24 25 24 24 23 22 20 19 21
9 9 8 7 6 8 10 12 14 15 15 16 18 19 21 22 22 23 24 24 24 25 25 25 26 26 25 26 27 26 26 24 23 22 22 23 21 22 21 20 18 19 20
11 8 8 7 7 8 10 11 12 13 13 15 17 19 20 21 21 21 22 22 23 23 23 24 25 26 26 26 27 26 25 23 22 22 21 21 21 20 19 19 18 17 19
11 11 7 6 8 6 8 9 10 10 12 14 16 18 19 20 20 19 20 20 21 22 22 23 23 25 25 26 26 26 24 23 22 20 20 19 20 19 19 20 18 16 16
10 7 6 5 6 5 6 7 8 10 12 14 15 17 18 18 18 19 18 20 21 21 22 23 22 23 24 24 23 24 24 22 21 20 18 17 18 18 18 18 16 15 16
9 8 7 5 3 3 4 5 7 9 11 12 14 15 16 16 17 17 18 19 20 21 22 22 22 22 22 22 22 22 22 21 21 20 19 19 19 19 19 18 18 16 16
9 6 5 2 1 3 4 6 7 9 10 11 13 14 15 15 15 16 16 18 20 21 22 22 22 22 22 20 21 21 21 21 22 21 21 20 19 20 20 20 20 17 16
8 5 4 3 1 4 6 6 7 8 9 10 11 12 13 13 13 13 15 16 18 19 21 21 22 22 22 21 20 20 21 21 22 23 23 23 23 23 23 21 22 21 20
6 4 3 4 2 4 4 6 8 9 9 9 11 12 12 12 12 12 13 14 16 17 19 20 22 21 22 21 21 21 21 21 21 22 23 24 24 24 24 24 24 24 24
6 5 4 2 4 3 4 5 6 7 7 8 9 11 11 11 12 12 12 13 14 15 16 18 20 20 21 22 22 21 21 21 22 22 23 24 25 25 26 26 26 26 26
5 4 2 2 3 2 2 4 5 6 6 7 8 9 10 10 11 11 12 13 13 14 15 17 18 20 21 22 23 23 22 22 22 23 24 25 26 26 27 27 27 27 27
6 4 2 3 2 1 2 3 4 4 5 6 6 7 8 8 9 10 10 12 13 14 15 16 17 19 20 22 23 23 24 24 24 25 26 26 27 27 28 28 28 27 27
4 2 1 1 1 1 2 3 4 4 5 6 5 5 6 7 8 9 9 10 12 13 14 15 17 18 20 21 22 24 24 25 25 26 26 26 27 28 29 29 30 31 29
4 2 2 2 2 1 3 4 5 7 7 5 4 4 4 6 8 8 8 9 11 11 13 14 16 18 20 21 22 24 24 25 26 27 27 28 28 29 30 30 31 32 33
3 3 3 3 2 3 3 4 7 8 8 6 4 5 7 6 6 7 8 9 10 11 14 15 17 18 19 21 22 23 24 26 26 27 27 28 29 30 31 31 32 33 35
3 3 3 3 3 3 4 4 5 7 6 5 4 5 3 3 3 6 8 9 11 13 14 16 17 18 20 21 22 24 25 25 25 26 27 28 29 30 31 32 34 35 36
3 2 3 4 4 4 4 5 5 5 4 5 4 4 3 1 5 7 8 10 13 14 15 16 17 18 20 21 22 23 24 25 26 26 27 28 30 30 32 33 34 36 37
2 3 4 4 4 4 4 6 6 5 5 6 6 5 4 5 7 8 10 14 14 14 15 16 17 18 19 20 21 23 24 25 25 26 27 29 30 31 32 33 34 35 36
5 3 3 3 4 5 5 5 5 6 5 5 4 4 4 5 9 12 14 14 13 14 15 16 17 18 19 20 21 22 23 25 26 27 28 29 30 30 32 33 34 36 37
5 4 4 3 5 5 5 5 5 5 5 5 5 6 5 7 11 13 14 14 15 15 15 16 17 18 19 20 20 22 24 25 26 27 28 28 29 31 32 32 34 35 36
5 5 5 4 4 4 3 4 4 5 5 6 7 7 6 11 13 14 14 14 14 15 16 17 17 17 19 20 21 22 24 25 26 27 28 29 30 31 32 33 34 35 36
4 3 4 3 2 2 2 4 4 5 5 6 6 7 8 11 12 13 14 15 15 16 16 16 17 18 18 20 20 21 23 25 26 27 28 29 30 31 32 33 35 36 37
3 3 3 3 3 3 3 3 5 6 7 7 8 9 10 12 13 14 15 15 15 15 16 17 17 18 18 20 21 21 22 24 25 26 27 28 30 31 32 33 34 35 35
5 5 5 4 3 4 4 5 6 7 8 9 10 10 11 12 13 14 14 14 15 16 17 17 17 18 19 19 21 21 22 24 26 26 26 27 29 30 31 32 33 34 34
7 8 8 7 7 6 6 6 6 7 8 10 11 11 11 11 12 13 14 14 15 16 17 17 17 18 19 19 20 20 22 25 25 25 26 27 29 30 30 31 33 33 33
Wind_Direction
250 263 276 296 313 330 341 345 348 353 355 355 356 356 358 0 1 3 5 3 2 360 359 356 353 352 349 348 346 341 333 329 324 325 323 317 310 302 297 293 291 296 294
247 252 272 289 313 332 339 343 348 352 354 357 358 360 1 2 4 7 4 3 4 2 0 1 355 354 353 352 349 344 343 340 337 328 324 319 309 309 302 298 292 300 300
239 252 266 286 312 329 339 345 346 353 358 1 1 2 3 5 7 7 6 7 7 5 7 4 356 355 355 355 354 357 353 348 347 348 330 328 319 316 309 304 303 304 313
238 241 266 284 306 322 332 341 348 0 6 2 1 3 7 7 7 8 10 10 10 11 11 6 360 355 358 358 1 1 357 356 352 351 341 335 325 321 316 313 306 311 320
237 250 254 285 301 330 342 0 10 14 9 359 0 7 11 10 10 15 16 14 13 13 12 6 3 5 6 5 6 1 357 354 353 344 344 337 334 326 325 319 318 306 320
227 239 259 275 299 322 353 18 14 2 4 358 3 9 14 14 18 22 22 19 18 16 10 5 6 5 10 5 358 360 2 356 353 348 338 333 331 325 323 327 323 319 309
231 247 263 272 292 341 21 18 1 355 355 3 11 14 18 21 24 26 25 24 21 15 8 7 6 8 10 10 4 360 357 357 357 352 349 342 333 328 323 328 332 332 339
237 232 257 215 296 19 16 14 356 350 358 6 13 18 18 22 27 28 23 27 25 16 14 12 11 7 7 10 10 4 0 355 356 357 355 342 337 332 332 331 328 334 336
226 215 164 246 290 325 327 345 345 349 355 7 24 25 23 27 26 26 22 22 24 20 17 14 17 14 9 11 15 10 7 358 1 3 4 360 353 351 347 344 343 340 334
202 204 210 259 325 334 336 343 337 346 5 17 20 20 23 30 30 20 18 18 21 18 16 15 17 15 13 11 11 13 12 356 354 356 355 356 354 351 351 352 346 347 343
216 243 271 314 312 331 340 341 349 359 11 19 20 18 28 26 27 16 15 12 15 16 15 13 13 11 10 11 11 6 2 358 358 358 356 354 352 351 350 350 352 350 347
248 236 288 325 332 4 8 3 6 16 17 17 14 10 6 20 22 21 14 12 14 16 15 13 13 14 14 11 10 10 5 2 357 354 352 350 347 344 343 344 346 349 351
206 257 319 342 346 21 42 33 17 4 356 2 3 4 6 4 12 22 16 15 15 13 12 14 16 17 15 13 9 5 1 359 356 353 350 348 347 346 345 344 346 344 344
216 226 295 46 51 67 38 18 2 346 337 339 352 353 357 346 347 356 358 4 5 7 12 8 12 14 13 12 6 3 0 358 354 352 350 350 350 350 350 349 348 346 344
177 214 308 318 297 290 320 315 331 324 327 340 352 4 346 327 329 339 343 349 354 3 9 4 5 6 5 3 1 359 357 355 354 353 352 351 350 349 349 349 348 346 343
214 268 290 283 273 282 280 303 319 321 329 341 2 343 326 334 1 358 353 357 3 3 351 354 356 358 357 356 355 355 355 355 355 355 354 353 350 348 347 346 346 344 341
259 271 284 286 265 261 259 269 296 312 335 341 352 345 347 353 20 360 353 356 351 349 348 350 351 352 353 354 353 353 353 353 354 353 352 350 348 347 346 344 343 342 340
285 282 282 278 267 263 264 275 287 295 306 312 329 346 355 10 337 346 347 351 345 346 348 350 351 351 350 350 351 351 351 351 351 351 350 349 348 346 344 342 341 340 339
280 285 287 279 270 267 274 279 286 291 294 299 309 315 325 328 330 333 332 324 332 338 342 344 346 348 349 350 350 349 349 350 351 350 349 347 345 344 342 342 341 341 339
299 285 280 268 270 277 279 277 281 284 284 290 291 294 308 319 315 321 323 326 332 334 337 342 346 347 348 348 349 349 348 348 347 346 345 344 344 344 342 341 340 338 337
301 289 282 282 277 278 276 274 280 280 280 286 291 291 291 307 312 318 322 325 327 329 335 339 340 344 346 346 345 346 345 345 345 344 344 344 343 341 341 340 338 337 336
307 296 285 281 283 280 271 280 282 285 287 290 298 298 298 307 312 317 322 328 332 333 332 334 339 342 342 341 343 343 342 342 343 343 342 342 341 341 340 338 337 337 336
321 311 300 299 293 293 284 292 290 291 291 293 299 304 304 309 315 320 324 326 327 329 333 336 336 337 340 341 342 342 340 340 341 341 340 340 340 339 338 337 337 336 336
332 320 308 312 315 303 295 296 297 297 298 299 300 304 308 311 315 319 322 326 329 333 333 333 334 335 338 339 340 340 341 341 341 341 341 340 338 339 338 338 337 337 337
316 310 308 312 313 311 308 306 304 303 304 306 306 307 310 313 316 320 326 331 331 331 332 333 334 334 335 336 337 338 340 340 339 340 340 340 338 338 338 338 338 337 337
317 311 308 311 312 314 312 312 313 314 313 313 313 312 314 318 323 326 328 329 329 330 332 333 333 334 335 336 337 338 338 338 339 340 339 339 337 337 338 337 338 338 337